EW9305 Weather Reports


Display with metric or nautical units.
time (UTC)temp
F
wind
direction
speed
MPH
gust
MPH
rain 1hr
in
rain 24hr
in
rain mn
in
humidity
%
barometer
mb
20201030095524 41 270 0.0 0.0 0.00 0.00 0.00 94 1027.5
20201030094622 41 270 0.0 0.0 0.00 0.00 0.00 95 1027.4
20201030093624 41 270 0.0 0.0 0.00 0.00 0.00 96 1027.4
20201030092724 41 259 0.0 0.0 0.00 0.00 0.00 96 1027.5
20201030091720 41 266 0.0 0.0 0.00 0.00 0.00 96 1027.5
20201030090724 41 270 0.0 0.0 0.00 0.00 0.00 96 1027.6
20201030085724 42 270 0.0 0.0 0.00 0.00 0.00 95 1027.6
20201030084829 42 270 0.0 0.0 0.00 0.00 0.00 95 1027.6
20201030083822 42 272 0.0 0.0 0.00 0.00 0.00 94 1027.8
20201030083725 42 284 0.0 0.0 0.00 0.00 0.00 94 1027.8
20201030082819 42 270 0.0 0.0 0.00 0.00 0.00 94 1027.8
20201030081821 42 270 0.0 0.0 0.00 0.00 0.00 93 1027.8
20201030080821 42 270 0.0 0.0 0.00 0.00 0.00 92 1027.7
20201030075822 43 309 0.0 0.0 0.00 0.00 0.00 91 1027.6
20201030074826 43 270 0.0 0.0 0.00 0.00 0.00 90 1027.9
20201030073846 43 270 0.0 0.0 0.00 0.00 0.00 90 1027.7
20201030071218 44 292 0.0 0.0 0.00 0.00 0.00 89 1027.5
20201030071117 44 292 0.0 0.0 0.00 0.00 0.00 89 1027.7
20201030071026 44 292 0.0 0.0 0.00 0.00 0.00 88 1027.6
20201030070126 44 315 0.0 0.0 0.00 0.00 0.00 86 1027.6
20201030070040 44 315 0.0 0.0 0.00 0.00 0.00 87 1027.6
20201030065026 45 315 0.0 0.0 0.00 0.00 0.00 86 1027.7
20201030064030 45 315 0.0 0.0 0.00 0.00 0.00 85 1027.5
20201030063023 45 315 0.0 0.0 0.00 0.00 0.00 87 1027.6
20201030062123 45 315 0.0 0.0 0.00 0.00 0.00 87 1027.4
20201030061123 45 315 0.0 0.0 0.00 0.00 0.00 86 1027.4
20201030060221 46 315 0.0 0.0 0.00 0.00 0.00 86 1027.4
20201030055227 46 315 0.0 0.0 0.00 0.00 0.00 85 1027.3
20201030055123 46 315 0.0 0.0 0.00 0.00 0.00 85 1027.3
20201030055024 46 315 0.0 0.0 0.00 0.00 0.00 85 1027.4
20201030054121 46 270 0.0 0.0 0.00 0.00 0.00 85 1027.3
20201030053133 46 270 0.0 0.0 0.00 0.00 0.00 85 1027.3
20201030052127 46 292 0.0 0.0 0.00 0.00 0.00 85 1027.3
20201030052027 46 292 0.0 0.0 0.00 0.00 0.00 85 1027.2
20201030051030 46 292 0.0 0.0 0.00 0.00 0.00 86 1027.3
20201030050045 47 270 0.0 0.0 0.00 0.00 0.00 86 1027.2
20201030045132 47 270 0.0 0.0 0.00 0.00 0.00 87 1027.4
20201030045050 47 270 0.0 0.0 0.00 0.00 0.00 87 1027.4
20201030044035 47 267 0.0 0.0 0.00 0.00 0.00 87 1027.3
20201030043033 47 276 0.0 0.0 0.00 0.00 0.00 85 1027.3
20201030042133 48 270 0.0 0.0 0.00 0.00 0.00 86 1027.1
20201030041140 48 270 0.0 0.0 0.00 0.00 0.00 85 1027.1
20201030040232 48 270 0.0 0.0 0.00 0.00 0.00 85 1026.7
20201030040133 48 270 0.0 0.0 0.00 0.00 0.00 85 1026.7
20201030040038 48 270 0.0 0.0 0.00 0.00 0.00 85 1026.7
20201030035049 48 270 0.0 0.0 0.00 0.00 0.00 85 1026.5
20201030034133 48 270 0.0 0.0 0.00 0.00 0.00 84 1026.5
20201030033137 48 315 0.0 0.0 0.00 0.00 0.00 82 1026.4
20201030033036 48 315 0.0 0.0 0.00 0.00 0.00 83 1026.3
20201030032037 49 315 0.0 0.0 0.00 0.00 0.00 81 1026.3
20201030031038 49 292 0.0 0.0 0.00 0.00 0.00 81 1026.3
20201030030058 49 292 0.0 0.0 0.00 0.00 0.00 80 1026.0
20201030025047 49 292 0.0 0.0 0.00 0.00 0.00 80 1026.0
20201030024036 50 292 0.0 0.0 0.00 0.00 0.00 80 1025.7
20201030023047 51 270 0.0 0.0 0.00 0.00 0.00 77 1025.8
20201030022040 51 270 0.0 0.0 0.00 0.00 0.00 76 1026.0
20201030021035 51 253 0.0 0.0 0.00 0.00 0.00 76 1026.1
20201030020039 52 236 0.0 0.0 0.00 0.00 0.00 77 1026.0
20201030015040 52 270 0.0 0.0 0.00 0.00 0.00 75 1025.7
20201030014033 52 315 0.0 0.0 0.00 0.00 0.00 75 1025.6
20201030013134 53 292 0.0 0.0 0.00 0.00 0.00 73 1025.4
20201030013036 53 292 0.0 0.0 0.00 0.00 0.00 73 1025.4
20201030012046 54 315 0.0 0.0 0.00 0.00 0.00 72 1025.4
20201030011039 54 271 0.0 0.0 0.00 0.00 0.00 69 1025.3
20201030010134 55 287 0.0 0.0 0.00 0.00 0.00 69 1025.2
20201030010043 55 292 0.0 0.0 0.00 0.00 0.00 68 1025.1
20201030005037 55 294 0.0 0.0 0.00 0.00 0.00 68 1024.9
20201030004946 55 302 0.0 0.0 0.00 0.00 0.00 67 1025.0
20201030004840 55 315 0.0 0.0 0.00 0.00 0.00 68 1025.0
20201030003733 56 292 0.0 0.0 0.00 0.00 0.00 69 1024.9
20201030002829 56 302 0.0 0.0 0.00 0.00 0.00 67 1024.5
20201030001837 57 296 0.0 0.0 0.00 0.00 0.00 67 1024.4
20201030000841 57 311 0.0 0.0 0.00 0.00 0.00 65 1024.3
20201029235836 58 315 0.0 0.0 0.00 0.00 0.00 65 1024.2
20201029234840 58 315 0.0 0.0 0.00 0.00 0.00 63 1024.2
20201029234733 58 315 0.0 0.0 0.00 0.00 0.00 63 1024.2
20201029233733 59 312 0.0 0.0 0.00 0.00 0.00 62 1024.2
20201029233635 59 299 0.0 0.0 0.00 0.00 0.00 62 1024.1
20201029233538 59 310 0.0 0.0 0.00 0.00 0.00 62 1024.1
20201029232631 59 315 0.0 0.0 0.00 0.00 0.00 61 1024.1
20201029232536 59 309 0.0 0.0 0.00 0.00 0.00 61 1023.8
20201029231534 59 311 0.0 0.0 0.00 0.00 0.00 61 1023.9
20201029230540 59 309 0.0 0.0 0.00 0.00 0.00 61 1023.9
20201029225639 59 312 1.0 0.0 0.00 0.00 0.00 61 1023.8
20201029225548 60 301 1.0 0.0 0.00 0.00 0.00 60 1023.7
20201029224533 59 313 1.0 0.0 0.00 0.00 0.00 62 1023.7
20201029223533 59 302 1.0 0.0 0.00 0.00 0.00 62 1023.7
20201029222633 59 315 0.0 0.0 0.00 0.00 0.00 63 1023.8
20201029221635 58 303 1.0 0.0 0.00 0.00 0.00 64 1023.6
20201029220630 58 299 0.0 0.0 0.00 0.00 0.00 65 1023.8
20201029215635 58 337 0.0 0.0 0.00 0.00 0.00 65 1023.8
20201029214641 57 316 1.0 0.0 0.00 0.00 0.00 65 1023.6
20201029213636 57 300 1.0 0.0 0.00 0.00 0.00 67 1023.7
20201029212736 57 285 1.0 0.0 0.00 0.00 0.00 67 1023.6
20201029211735 56 333 1.0 0.0 0.00 0.00 0.00 68 1023.6
20201029210831 55 321 1.0 0.0 0.00 0.00 0.00 69 1023.2
20201029205901 55 310 1.0 0.0 0.00 0.00 0.00 71 1023.3
20201029204933 55 292 1.0 0.0 0.00 0.00 0.00 71 1023.3
20201029203939 54 318 1.0 0.0 0.00 0.00 0.00 72 1023.2
20201029202934 54 308 1.0 0.0 0.00 0.00 0.00 71 1023.0
20201029201931 54 314 1.0 0.0 0.00 0.00 0.00 72 1023.0
20201029200930 54 309 1.0 0.0 0.00 0.00 0.00 72 1023.0
20201029195942 53 298 0.0 0.0 0.00 0.00 0.00 73 1022.9
20201029195832 53 292 1.0 0.0 0.00 0.00 0.00 73 1022.8
20201029194835 53 275 1.0 0.0 0.00 0.00 0.00 73 1023.1
20201029193844 53 273 1.0 0.0 0.00 0.00 0.00 74 1023.0
20201029192930 52 282 0.0 0.0 0.00 0.00 0.00 75 1023.2
20201029191937 52 270 0.0 0.0 0.00 0.00 0.00 75 1023.2
20201029191835 52 290 0.0 0.0 0.00 0.00 0.00 75 1023.1
20201029190931 52 272 1.0 0.0 0.00 0.00 0.00 75 1023.3
20201029185948 51 283 0.0 0.0 0.00 0.00 0.00 75 1023.4
20201029185040 51 296 0.0 0.0 0.00 0.00 0.00 75 1023.4
20201029184934 51 304 0.0 0.0 0.00 0.00 0.00 76 1023.4
20201029183934 51 313 1.0 0.0 0.00 0.00 0.00 75 1023.5
20201029183831 51 306 1.0 0.0 0.00 0.00 0.00 75 1023.5
20201029182849 50 308 1.0 0.0 0.00 0.00 0.00 76 1023.5
20201029181932 50 299 1.0 0.0 0.00 0.00 0.00 75 1023.5
20201029180939 50 290 1.0 0.0 0.00 0.00 0.00 76 1023.3
20201029180832 50 297 1.0 0.0 0.00 0.00 0.00 77 1023.4
20201029175835 49 332 1.0 0.0 0.00 0.00 0.00 77 1023.3
20201029175737 49 319 1.0 0.0 0.00 0.00 0.00 77 1023.4
20201029174734 49 326 1.0 0.0 0.00 0.00 0.00 77 1023.2
20201029173830 49 302 1.0 0.0 0.00 0.00 0.00 77 1023.4
20201029172940 49 320 1.0 0.0 0.00 0.00 0.00 76 1023.3
20201029171939 49 320 1.0 0.0 0.00 0.00 0.00 78 1023.2
20201029170935 48 313 1.0 0.0 0.00 0.00 0.00 77 1023.1
20201029165936 48 313 1.0 0.0 0.00 0.00 0.00 79 1023.1
20201029165832 48 310 0.0 0.0 0.00 0.00 0.00 79 1023.0
20201029164855 48 332 1.0 0.0 0.00 0.00 0.00 79 1022.9
20201029163937 47 306 1.0 0.0 0.00 0.00 0.00 81 1022.8
20201029162939 47 330 1.0 0.0 0.00 0.00 0.00 81 1022.8
20201029162834 47 324 1.0 0.0 0.00 0.00 0.00 82 1022.7
20201029161857 46 314 1.0 0.0 0.00 0.00 0.00 82 1022.7
20201029160707 46 307 1.0 0.0 0.00 0.00 0.00 83 1022.3
20201029155756 46 305 1.0 0.0 0.00 0.00 0.00 84 1022.0
20201029155738 46 312 1.0 0.0 0.00 0.00 0.00 84 1022.0
20201029153903 45 292 1.0 0.0 0.00 0.00 0.00 83 1022.0
20201029153757 45 304 1.0 0.0 0.00 0.00 0.00 84 1021.9
20201029152135 45 317 1.0 0.0 0.00 0.00 0.00 84 1021.8
20201029151232 45 313 1.0 0.0 0.00 0.00 0.00 83 1021.4
20201029150329 45 312 1.0 0.0 0.00 0.00 0.00 82 1021.1
20201029150229 45 305 1.0 0.0 0.00 0.00 0.00 83 1021.1
20201029145237 45 283 1.0 0.0 0.00 0.00 0.00 83 1020.9
20201029144231 46 297 1.0 0.0 0.00 0.00 0.00 83 1020.5
20201029143239 46 300 1.0 0.0 0.00 0.00 0.00 83 1020.2
20201029142237 46 287 1.0 0.0 0.00 0.00 0.00 83 1020.1
20201029141247 46 288 1.0 0.0 0.00 0.00 0.00 83 1019.9
20201029141134 46 280 1.0 0.0 0.00 0.00 0.00 83 1019.8
20201029140135 46 283 1.0 0.0 0.00 0.00 0.00 83 1019.5
20201029140036 46 291 1.0 0.0 0.00 0.00 0.00 84 1019.5
20201029135136 46 299 1.0 0.0 0.00 0.00 0.00 83 1019.1
20201029134228 46 293 1.0 0.0 0.00 0.00 0.00 83 1018.8
20201029133233 46 287 1.0 0.0 0.00 0.00 0.00 83 1018.7
20201029132232 46 289 1.0 0.0 0.00 0.00 0.00 82 1018.5
20201029131234 46 299 1.0 0.0 0.00 0.00 0.00 83 1018.2
20201029130332 46 283 1.0 0.0 0.00 0.00 0.00 84 1017.9
20201029125335 46 285 1.0 0.0 0.00 0.00 0.00 84 1017.8
20201029124332 45 295 1.0 0.0 0.00 0.00 0.00 85 1017.4
20201029124236 45 285 1.0 0.0 0.00 0.00 0.00 85 1017.4
20201029123242 45 273 1.0 0.0 0.00 0.00 0.00 84 1017.1
20201029122334 45 272 1.0 0.0 0.00 0.00 0.00 85 1016.9
20201029121334 45 272 1.0 0.0 0.00 0.00 0.00 84 1016.9
20201029120334 45 273 1.0 0.0 0.00 0.00 0.00 84 1016.6
20201029120246 45 270 1.0 0.0 0.00 0.00 0.00 84 1016.5
20201029115332 45 271 1.0 0.0 0.00 0.00 0.00 83 1016.3
20201029114429 45 270 1.0 0.0 0.00 0.00 0.00 83 1016.1
20201029113437 45 271 1.0 0.0 0.00 0.00 0.00 81 1015.9
20201029112533 45 268 1.0 0.0 0.00 0.00 0.00 81 1016.0
20201029112430 45 270 1.0 0.0 0.00 0.00 0.00 81 1016.0
20201029112334 45 276 1.0 0.0 0.00 0.00 0.00 80 1016.0
20201029111335 45 276 1.0 0.0 0.00 0.00 0.00 80 1015.8
20201029110344 46 269 1.0 0.0 0.00 0.00 0.00 79 1015.5
20201029105438 46 272 1.0 0.0 0.00 0.00 0.00 79 1015.3
20201029104539 46 262 1.0 0.0 0.00 0.00 0.00 79 1015.0
20201029104433 46 265 1.0 0.0 0.00 0.00 0.00 79 1015.0
20201029104341 46 262 1.0 0.0 0.00 0.00 0.00 79 1014.9
20201029103439 46 270 1.0 0.0 0.00 0.00 0.00 80 1014.7
20201029103334 46 267 1.0 0.0 0.00 0.00 0.00 79 1014.6
20201029102339 45 274 1.0 0.0 0.00 0.00 0.00 80 1014.4
20201029101432 45 265 1.0 0.0 0.00 0.00 0.00 81 1014.2
20201029100436 45 269 0.0 0.0 0.00 0.00 0.00 81 1014.2